[[{"header":{"parameterUnit":"m.s-1","parameterCategory":1,"la1":30.2991,"la2":30.254,"lo1":-89.0895,"lo2":-89.0444,"dy":0.0017,"dx":0.0017,"nx":28,"ny":28,"refTime":"2023-08-22T21:00:00:Z","depth":0,"parameterNumber":2,"parameterNumberName":"U-component_of_WINDS"},"data":[0,0,0,0,0,0,0,0,0,0,0,0,0,0,0,0,0,0,0,0,0,0,0,0,0,0,0,0,0,0,0,0,0,0,0,0,0,0,0,0,0,0,0,0,0,0,0,0,0,0,0,0,0,0,0,0,0,0,-2.2139,-2.2138,0,-2.2079,-2.2078,-2.2077,-2.2033,-2.2032,-2.2032,-2.2031,-2.1969,-2.1968,-2.1967,0,0,0,0,0,0,0,0,0,0,0,0,0,-2.2217,-2.2215,-2.2139,-2.2138,-2.2137,-2.2079,-2.2078,-2.2077,-2.2033,-2.2032,-2.2032,-2.2031,-2.197,-2.1968,-2.1967,0,0,0,0,0,0,0,0,0,0,0,0,0,-2.2172,-2.2215,-2.2139,-2.2108,-2.2105,-2.2079,-2.2078,-2.2077,-2.2033,-2.2032,-2.2032,-2.2031,-2.197,-2.1968,-2.1966,-2.1966,0,0,-2.196,-2.196,0,0,0,0,0,0,0,0,-2.2175,-2.217,-2.2113,-2.211,-2.2106,-2.2063,-2.2083,-2.204,-2.2033,-2.206,-2.2031,-2.2031,-2.2001,-2.1996,-2.1986,-2.1963,-2.1961,-2.196,-2.1959,-2.1958,-2.1958,0,0,0,0,0,0,0,-2.2178,-2.2172,-2.2115,-2.2113,-2.2108,-2.2098,-2.2091,-2.2074,-2.2034,-2.2058,-2.2054,-2.2048,-2.1999,-2.1988,-2.1984,-2.196,-2.196,-2.1959,-2.1957,-2.1957,-2.1938,-2.1938,0,0,0,0,0,0,-2.2186,-2.2175,-2.2117,-2.2113,-2.214,-2.2097,-2.2089,-2.2077,-2.2034,-2.2027,-2.2048,-2.2046,-2.1992,-2.1987,-2.1982,-2.1981,-2.1958,-2.1956,-2.1955,-2.1937,-2.1938,-2.1939,0,0,0,0,0,0,-2.2188,-2.2181,-2.2119,-2.2143,-2.2134,-2.2096,-2.2083,-2.2076,-2.2066,-2.2027,-2.202,-2.2045,-2.1991,-2.1985,-2.1971,-2.1978,-2.1956,-2.1954,-2.1936,-2.1937,-2.1938,-2.1978,0,0,0,0,0,0,-2.219,-2.2182,-2.2181,-2.2143,-2.2133,-2.2109,-2.2084,-2.2076,-2.2063,-2.2059,-2.2022,-2.2016,-2.199,-2.1975,-2.197,-2.1975,-2.1952,-2.1936,-2.1937,-2.1938,-2.1976,-2.1981,-2.1984,0,0,0,0,0,-2.2193,-2.2194,-2.2181,-2.2174,-2.2131,-2.211,-2.2104,-2.2075,-2.2063,-2.2062,-2.2039,-2.2017,-2.1979,-2.1974,-2.1967,-2.1973,-2.1935,-2.1937,-2.1938,-2.1974,-2.198,-2.1984,0,0,0,0,0,0,-2.2231,-2.2188,-2.2173,-2.2162,-2.214,-2.2102,-2.21,-2.2081,-2.2061,-2.2058,-2.2023,-2.2015,-2.2006,-2.1988,-2.1983,-2.1972,-2.1954,-2.1955,-2.1984,-2.1989,-2.1993,-2.1997,-2.1951,0,0,0,0,0,-2.2239,-2.2225,-2.2188,-2.2181,-2.2171,-2.2138,-2.2127,-2.2107,-2.2083,-2.2073,-2.2048,-2.2025,-2.2008,-2.1998,-2.198,-2.1974,-2.1967,-2.1975,-2.1979,-2.1983,-2.1983,-2.1981,-2.1985,-2.1944,-2.1944,-2.1944,0,0,-2.2253,-2.2228,-2.2221,-2.2188,-2.2169,-2.2156,-2.213,-2.2116,-2.2107,-2.2071,-2.2057,-2.2038,-2.2011,-2.2002,-2.1997,-2.1987,-2.1994,-2.1985,-2.1988,-2.1986,-2.1983,-2.1987,-2.1991,-2.1945,-2.1944,-2.1944,0,0,-2.2273,-2.2252,-2.2245,-2.2227,-2.2199,-2.2178,-2.2177,-2.2142,-2.2129,-2.2115,-2.2088,-2.2077,-2.2048,-2.2031,-2.2018,-2.2036,-2.2016,-2.2032,-2.2052,-2.2051,-2.2054,-2.2057,-2.2065,-2.2068,-2.2032,-2.2032,-2.2032,0,-2.2294,-2.2273,-2.2244,-2.2234,-2.2221,-2.219,-2.2184,-2.2168,-2.2135,-2.2127,-2.2117,-2.2082,-2.2061,-2.2049,-2.2054,-2.2045,-2.2043,-2.2035,-2.2056,-2.2059,-2.2061,-2.2068,-2.2071,-2.2035,-2.2034,-2.2034,-2.2034,0,-2.2302,-2.2288,-2.2287,-2.2258,-2.2245,-2.2237,-2.2207,-2.2198,-2.2181,-2.2161,-2.2149,-2.2123,-2.2101,-2.2097,-2.2079,-2.2084,-2.2079,-2.2063,-2.2044,-2.2067,-2.2074,-2.2076,-2.2038,-2.2037,-2.2036,-2.2036,0,0,-2.2341,-2.2299,-2.2299,-2.2287,-2.2255,-2.2244,-2.2236,-2.2216,-2.2209,-2.2189,-2.2182,-2.216,-2.2147,-2.2133,-2.2113,-2.2112,-2.213,-2.2096,-2.2095,-2.2104,-2.2136,-2.2148,-2.2152,-2.2118,-2.2118,-2.2118,-2.2139,0,-2.2356,-2.2339,-2.2315,-2.2306,-2.2295,-2.2267,-2.226,-2.2241,-2.2223,-2.2211,-2.2192,-2.2178,-2.216,-2.2152,-2.215,-2.2128,-2.2136,-2.2127,-2.2111,-2.2111,-2.2119,-2.2155,-2.2166,-2.2187,-2.2141,-2.2141,-2.2142,0,-2.237,-2.2354,-2.2344,-2.2317,-2.2312,-2.2306,-2.2287,-2.2276,-2.2254,-2.2242,-2.2229,-2.2208,-2.2199,-2.2183,-2.2172,-2.2166,-2.2159,-2.2148,-2.2148,-2.2145,-2.2127,-2.2153,-2.2193,-2.2196,-2.2145,-2.2145,-2.2144,0,-2.2401,-2.2376,-2.2368,-2.2359,-2.2326,-2.2323,-2.231,-2.2288,-2.2279,-2.2262,-2.2256,-2.2239,-2.223,-2.2218,-2.2194,-2.2184,-2.2186,-2.2167,-2.2176,-2.2177,-2.2176,-2.2177,-2.2216,-2.2172,-2.2172,-2.2172,-2.2172,0,-2.242,-2.2416,-2.2382,-2.2377,-2.2373,-2.2346,-2.2342,-2.2326,-2.2308,-2.23,-2.2275,-2.2269,-2.2238,-2.2228,-2.221,-2.2204,-2.22,-2.219,-2.2185,-2.2192,-2.2194,-2.2187,-2.2185,-2.2173,-2.2173,-2.2172,-2.2172,0,-2.2453,-2.243,-2.2419,-2.2391,-2.2384,-2.2382,-2.2359,-2.2354,-2.2336,-2.2327,-2.2324,-2.2296,-2.2284,-2.2259,-2.224,-2.2228,-2.2227,-2.2218,-2.2234,-2.2231,-2.2242,-2.2241,-2.2277,-2.2281,-2.2235,-2.2236,-2.2236,0,-2.2466,-2.2463,-2.2435,-2.2429,-2.2417,-2.2407,-2.2398,-2.2373,-2.2364,-2.2342,-2.2341,-2.2327,-2.2314,-2.2297,-2.2275,-2.2261,-2.2252,-2.2266,-2.2249,-2.2258,-2.2253,-2.2254,-2.2254,-2.2269,-2.2269,-2.227,-2.227,0,-2.2493,-2.2483,-2.2471,-2.2456,-2.2447,-2.2434,-2.2419,-2.2416,-2.2387,-2.238,-2.2368,-2.2358,-2.2341,-2.2328,-2.2311,-2.2298,-2.228,-2.2276,-2.2278,-2.2284,-2.2294,-2.229,-2.2244,-2.2275,-2.2274,-2.2274,-2.2274,-2.2274,-2.2517,-2.2513,-2.2495,-2.2483,-2.2471,-2.2459,-2.2454,-2.2437,-2.2427,-2.241,-2.2397,-2.2387,-2.2369,-2.2345,-2.2334,-2.2326,-2.2317,-2.2319,-2.2319,-2.232,-2.2324,-2.2296,-2.2323,-2.2323,-2.2323,-2.2322,-2.2322,0,-2.2543,-2.2531,-2.2521,-2.2503,-2.2495,-2.248,-2.2465,-2.2459,-2.245,-2.2436,-2.2425,-2.2413,-2.2402,-2.2381,-2.2368,-2.2366,-2.2358,-2.2364,-2.2363,-2.2361,-2.2332,-2.2332,-2.2371,-2.2371,-2.2371,-2.2371,-2.2371,-2.2371,-2.2556,-2.255,-2.2539,-2.2528,-2.2516,-2.2506,-2.2499,-2.2489,-2.2477,-2.2465,-2.2456,-2.2443,-2.2427,-2.2413,-2.2403,-2.2397,-2.2394,-2.2403,-2.2395,-2.2367,-2.2363,-2.2358,-2.2359,-2.2402,-2.2402,-2.2424,-2.2425,-2.2425]},{"header":{"parameterUnit":"m.s-1","parameterCategory":1,"la1":30.2991,"la2":30.254,"lo1":-89.0895,"lo2":-89.0444,"dy":0.0017,"dx":0.0017,"nx":28,"ny":28,"refTime":"2023-08-22T21:00:00:Z","depth":0,"parameterNumber":3,"parameterNumberName":"V-component_of_WINDS"},"data":[0,0,0,0,0,0,0,0,0,0,0,0,0,0,0,0,0,0,0,0,0,0,0,0,0,0,0,0,0,0,0,0,0,0,0,0,0,0,0,0,0,0,0,0,0,0,0,0,0,0,0,0,0,0,0,0,0,0,3.6058,3.6057,0,3.6039,3.6039,3.6038,3.6054,3.6055,3.6055,3.6056,3.6032,3.6031,3.603,0,0,0,0,0,0,0,0,0,0,0,0,0,3.6102,3.6101,3.6058,3.6057,3.6057,3.6039,3.6039,3.6038,3.6054,3.6055,3.6055,3.6056,3.6033,3.6031,3.603,0,0,0,0,0,0,0,0,0,0,0,0,0,3.6083,3.6101,3.6058,3.6063,3.6063,3.6039,3.6039,3.6038,3.6054,3.6055,3.6056,3.6057,3.6033,3.6031,3.6029,3.5998,0,0,3.6024,3.6023,0,0,0,0,0,0,0,0,3.6084,3.6081,3.6062,3.6062,3.6063,3.605,3.6046,3.6025,3.6053,3.6057,3.6056,3.6057,3.6037,3.6035,3.6029,3.5997,3.5996,3.6023,3.6022,3.6022,3.6021,0,0,0,0,0,0,0,3.6085,3.6082,3.605,3.6062,3.6062,3.6064,3.6063,3.6042,3.6041,3.6057,3.6058,3.6056,3.6037,3.6031,3.6029,3.5995,3.6024,3.6022,3.6021,3.602,3.5935,3.5934,0,0,0,0,0,0,3.6087,3.6083,3.6051,3.6049,3.6076,3.6063,3.6061,3.6053,3.6042,3.6041,3.6055,3.6056,3.6033,3.6031,3.6028,3.5989,3.6022,3.602,3.6019,3.5936,3.5934,3.5933,0,0,0,0,0,0,3.6087,3.6084,3.6051,3.6067,3.6063,3.6061,3.6052,3.6052,3.6046,3.604,3.604,3.6049,3.6034,3.603,3.6005,3.5988,3.6019,3.6017,3.5937,3.5935,3.5934,3.5912,0,0,0,0,0,0,3.6089,3.6084,3.6073,3.6066,3.6062,3.603,3.6051,3.6051,3.6043,3.6045,3.6034,3.6034,3.6035,3.6008,3.6003,3.5986,3.6016,3.5939,3.5936,3.5934,3.5914,3.591,3.5906,0,0,0,0,0,3.609,3.6067,3.6072,3.6068,3.6048,3.603,3.6027,3.603,3.6041,3.603,3.6026,3.6034,3.5991,3.6005,3.6,3.5982,3.594,3.5937,3.5934,3.5916,3.591,3.5906,0,0,0,0,0,0,3.607,3.6066,3.6072,3.6046,3.6038,3.6032,3.6018,3.6024,3.6012,3.6014,3.6017,3.6014,3.5987,3.5982,3.5998,3.595,3.5967,3.5963,3.5955,3.5949,3.5945,3.5947,3.6014,0,0,0,0,0,3.6063,3.605,3.6046,3.6024,3.6019,3.6019,3.6011,3.6014,3.6005,3.6002,3.5996,3.5986,3.597,3.596,3.5945,3.5914,3.5911,3.5899,3.5895,3.5891,3.5888,3.5869,3.5863,3.5925,3.5925,3.5925,0,0,3.6048,3.6044,3.6035,3.602,3.6014,3.5998,3.6016,3.5999,3.5987,3.5998,3.5974,3.597,3.5959,3.593,3.5917,3.5925,3.587,3.5888,3.5886,3.5884,3.5866,3.586,3.5855,3.5923,3.5923,3.5924,0,0,3.6012,3.6008,3.5988,3.5982,3.5974,3.5974,3.5969,3.5962,3.596,3.5936,3.5944,3.5929,3.5902,3.5893,3.5885,3.5845,3.5851,3.584,3.5818,3.58,3.5795,3.5791,3.5775,3.5769,3.5836,3.5836,3.5836,0,3.5993,3.5972,3.5977,3.5959,3.5951,3.5963,3.5941,3.5935,3.5921,3.5915,3.5924,3.589,3.5884,3.5852,3.5842,3.5836,3.5829,3.5841,3.5795,3.5791,3.5787,3.5772,3.5766,3.5835,3.5835,3.5835,3.5835,0,3.5948,3.5933,3.5918,3.5906,3.5896,3.5877,3.5878,3.5867,3.5871,3.5869,3.5844,3.5836,3.5819,3.5812,3.5815,3.5781,3.5786,3.5796,3.5812,3.578,3.5766,3.576,3.5833,3.5834,3.5834,3.5834,0,0,3.5899,3.589,3.5884,3.5878,3.5869,3.5857,3.5837,3.5822,3.5812,3.5802,3.5785,3.5761,3.577,3.5761,3.5763,3.5747,3.5714,3.5758,3.5758,3.5749,3.5673,3.5665,3.5659,3.5718,3.5717,3.5716,3.5674,0,3.5862,3.5829,3.5833,3.5801,3.5786,3.5796,3.5779,3.577,3.5768,3.5753,3.575,3.5733,3.5746,3.5741,3.5726,3.5721,3.5698,3.5724,3.57,3.5699,3.5701,3.5651,3.5643,3.5604,3.5668,3.5667,3.5667,0,3.5814,3.5803,3.577,3.5762,3.5756,3.5741,3.5727,3.5713,3.5703,3.5702,3.5692,3.5696,3.5675,3.5692,3.5661,3.5679,3.5669,3.5665,3.5663,3.566,3.568,3.5645,3.5591,3.5585,3.5658,3.5659,3.566,0,3.5779,3.5757,3.5734,3.5728,3.5719,3.5708,3.5703,3.5695,3.5685,3.5672,3.5665,3.565,3.5641,3.5627,3.5627,3.564,3.5595,3.5613,3.5592,3.5592,3.5581,3.5581,3.5523,3.5576,3.5577,3.5577,3.5577,0,3.5737,3.5716,3.5718,3.5704,3.568,3.5684,3.566,3.5656,3.5648,3.5631,3.5639,3.5623,3.5624,3.5607,3.5606,3.558,3.5576,3.5573,3.5573,3.5572,3.5572,3.5565,3.5567,3.5575,3.5575,3.5576,3.5576,0,3.5694,3.5695,3.5671,3.5664,3.5662,3.5644,3.5638,3.5623,3.5622,3.5601,3.5596,3.5593,3.5574,3.5572,3.5549,3.5549,3.5516,3.5519,3.552,3.552,3.5498,3.55,3.5432,3.5422,3.5484,3.5483,3.5483,0,3.5666,3.5651,3.5643,3.5633,3.5628,3.5612,3.5603,3.5605,3.5595,3.5581,3.5568,3.555,3.5535,3.5503,3.5498,3.548,3.5482,3.546,3.5479,3.5478,3.548,3.5481,3.5478,3.5455,3.5455,3.5454,3.5454,0,3.5617,3.5618,3.5605,3.5591,3.5579,3.5568,3.5558,3.5549,3.5551,3.5538,3.5519,3.5508,3.5485,3.5466,3.5448,3.5442,3.5447,3.5448,3.5442,3.544,3.544,3.5438,3.5508,3.5449,3.5449,3.545,3.545,3.545,3.558,3.5566,3.5558,3.5542,3.5535,3.5525,3.5511,3.5507,3.5492,3.5475,3.5477,3.5455,3.5444,3.5421,3.5413,3.5395,3.5402,3.5394,3.5391,3.5389,3.5386,3.5444,3.5392,3.5392,3.5392,3.5392,3.5392,0,3.5529,3.5525,3.551,3.5496,3.5483,3.5491,3.548,3.5468,3.545,3.5439,3.5425,3.5402,3.5384,3.5377,3.5358,3.5345,3.5346,3.5339,3.534,3.5338,3.5381,3.5388,3.5338,3.5338,3.5338,3.5338,3.5338,3.5338,3.5501,3.5478,3.5478,3.5449,3.5445,3.5425,3.5417,3.5407,3.5399,3.5374,3.5359,3.5355,3.5345,3.5326,3.5308,3.5306,3.5298,3.529,3.5289,3.5329,3.5335,3.534,3.5346,3.5289,3.5288,3.5247,3.5246,3.5246]}]]